STARLINK-32239, 61892

Orbit data source: Space-Track

STARLINK-32239, 61892 is a payload satellite owned by SpaceX/Seattle (US) in LEO that was launched on Sat, 09 Nov 2024 UTC via an FALCON 9 launch vehicle from the Air Force Western Test Range (AFWTR). Payload-class satellites include a variety of spacecraft equipped with specific instruments for various scientific and technological missions. These include communications satellites like Starlink; space stations such as the ISS; scientific satellites like the Hubble; Earth observation satellites from companies like Planet Labs, Umbra, and HawkEye 360; GPS; miniature CubeSats for education and research; and military/defense satellites.

Loading next visibility...
Identifier
61892, 2024-204U
Orbit
LEO
Country
Flag of USUS
Related business
Manufacturer
SpaceX/Seattle
Mission
Operational Commercial Communications
Bus & Motor
STARLINK V2M, Unknown motor
Mass
730 kg wet, ~700 kg dry
Launch date (UTC)
2024-11-09 (2 years ago)
Launch vehicle
FALCON 9
Launch site
Air Force Western Test Range (AFWTR)
Object type
Payload
Rocket body
Debris
Shape & HBR
Box + 2 Pan, 17.7 m
Radar Cross Section
33.884 m², Large (>1 m²)

Expand to show TLE details & history
Last TLE update: 23 hours ago

TLE from 23 hours ago
0 STARLINK-32239
1 61892U 24204U   26170.94370769  .00001384  00000-0  52098-4 0  9993
2 61892  53.1612  12.0797 0001469 101.4676 258.6492 15.34398877 90759
Epoch: 2026-06-19T22:38Z
TLE epoch observation values (Epoch: 2026-06-19T22:38:56.344Z)
Latitude
0.00001°
Longitude
124.17951°
Altitude
463.806 km
Speed
7.636 km/s
True Right ascension
00h 48m 19s
True Declination
0° 00' 00"
Sunlit
Object was in daylight at epoch
Visualization orbit readout
Latitude
Unknown
Longitude
Unknown
Altitude
Unknown
Speed
Unknown
Apparent Right ascension
Unknown
Apparent Declination
Unknown
Sunlit
N/A
Visualization observer readout
Local Sidereal Time
08:32:33
Azimuth
Unknown
Elevation
Unknown
Doppler factor
Unknown
Orbital elements
Apogee altitude
463.968 km
Perigee altitude
461.958 km
Semi-major axis
6,841.1 km
Eccentricity
0.00015
Inclination
53.1612°
RAAN
12.0797°
Arg. of periapsis
101.4676°
True anomaly
258.6327°
Mean anomaly
258.6492°
Eccentric anomaly
258.64095°
Mean motion
3.83578 °/min
Orbital period
93.85 mins
BSTAR
0.000052098
Loading maneuver chart data...
Computing Atmospheric mass density...
Loading historical data...
Loading historical data...
Loading historical data...
Loading historical data...
Loading historical data...
Loading historical data...
Loading historical data...

Documentation

Showing up to 5 results
|